Total_Precipitation_Accumulation
0.93 1.10 1.33 1.55 1.77 1.99 2.07 2.08 2.04 2.03 2.08 2.17 2.08 1.84 1.61 1.50 1.36 1.28 1.28 1.24 1.22 1.27 1.16 0.98 0.95 0.99 0.91 0.83 0.81 0.81 0.78 0.69 0.63 0.55 0.38 0.26 0.21 0.18 0.15 0.14 0.13 0.13 0.14
0.77 0.88 1.08 1.26 1.52 1.77 2.03 2.09 2.07 2.10 1.96 1.83 1.91 1.92 1.85 1.70 1.57 1.49 1.44 1.36 1.31 1.30 1.29 1.23 1.16 1.15 1.13 1.08 1.01 1.00 0.96 0.89 0.85 0.76 0.66 0.43 0.28 0.19 0.16 0.17 0.17 0.17 0.17
0.67 0.76 0.86 0.94 1.21 1.47 1.75 1.94 2.04 2.09 2.10 2.03 2.13 2.07 1.98 1.78 1.54 1.37 1.37 1.37 1.38 1.39 1.34 1.33 1.34 1.33 1.29 1.21 1.16 1.14 1.13 1.08 1.01 0.95 0.96 0.70 0.42 0.28 0.22 0.21 0.21 0.21 0.21
0.64 0.71 0.77 0.82 0.98 1.22 1.43 1.61 1.89 2.08 2.16 2.22 2.17 2.03 1.81 1.59 1.38 1.36 1.47 1.50 1.47 1.42 1.38 1.37 1.38 1.41 1.37 1.28 1.31 1.32 1.21 1.22 1.17 1.11 1.01 0.85 0.66 0.57 0.41 0.28 0.28 0.29 0.28
0.62 0.67 0.73 0.78 0.89 1.07 1.25 1.37 1.59 1.90 2.00 1.94 1.92 2.00 1.87 1.65 1.54 1.51 1.48 1.46 1.38 1.34 1.31 1.30 1.33 1.32 1.33 1.30 1.32 1.36 1.35 1.30 1.26 1.21 1.16 1.13 0.98 0.82 0.74 0.55 0.41 0.39 0.37
0.66 0.71 0.76 0.79 0.81 0.90 1.08 1.26 1.33 1.54 1.70 1.70 1.73 1.80 1.72 1.66 1.56 1.43 1.38 1.39 1.35 1.26 1.22 1.21 1.24 1.29 1.30 1.27 1.28 1.37 1.43 1.43 1.34 1.23 1.12 1.09 1.03 0.91 0.89 0.79 0.60 0.52 0.43
0.79 0.84 0.82 0.85 0.86 0.87 0.90 1.05 1.16 1.26 1.42 1.56 1.64 1.63 1.65 1.62 1.56 1.45 1.39 1.36 1.33 1.25 1.18 1.17 1.19 1.23 1.27 1.33 1.39 1.41 1.40 1.45 1.44 1.37 1.29 1.20 1.08 1.00 1.01 0.99 0.81 0.67 0.54
0.91 0.95 0.95 1.03 1.05 1.01 0.94 0.96 1.01 1.04 1.14 1.33 1.48 1.51 1.55 1.52 1.42 1.33 1.26 1.22 1.16 1.15 1.17 1.22 1.27 1.29 1.31 1.31 1.34 1.33 1.30 1.34 1.36 1.35 1.31 1.25 1.16 1.15 1.15 1.14 1.18 1.07 0.84
0.96 1.02 1.07 1.08 1.03 0.97 0.95 0.95 0.99 0.96 0.92 1.01 1.14 1.23 1.30 1.30 1.24 1.16 1.09 1.08 1.07 1.07 1.11 1.17 1.22 1.23 1.22 1.21 1.23 1.22 1.19 1.23 1.27 1.28 1.28 1.23 1.13 1.13 1.14 1.15 1.22 1.32 1.17
0.83 0.91 0.93 0.90 0.92 0.93 0.91 0.93 0.97 1.00 0.94 0.92 0.97 1.06 1.06 1.04 1.00 0.99 0.94 0.88 0.89 0.90 0.93 1.00 1.07 1.09 1.08 1.07 1.09 1.10 1.07 1.11 1.10 1.12 1.18 1.19 1.11 1.09 1.11 1.14 1.18 1.26 1.32
0.64 0.67 0.68 0.71 0.75 0.79 0.85 0.93 1.03 1.03 0.91 0.93 0.97 0.97 0.99 1.00 0.92 0.86 0.85 0.86 0.83 0.82 0.86 0.89 0.93 0.95 0.96 0.97 0.97 0.96 0.95 0.97 0.96 0.98 1.01 1.03 1.06 1.09 1.10 1.11 1.16 1.22 1.28
0.55 0.54 0.54 0.53 0.53 0.57 0.63 0.71 0.81 0.81 0.79 0.82 0.90 0.87 0.89 0.97 0.94 0.86 0.82 0.81 0.77 0.71 0.71 0.74 0.77 0.78 0.79 0.80 0.83 0.83 0.83 0.83 0.83 0.84 0.89 0.90 0.93 0.98 1.02 1.08 1.13 1.16 1.19
0.42 0.39 0.40 0.42 0.41 0.41 0.46 0.55 0.63 0.63 0.65 0.69 0.73 0.74 0.74 0.80 0.82 0.85 0.84 0.80 0.78 0.72 0.64 0.62 0.63 0.64 0.66 0.67 0.69 0.71 0.71 0.73 0.74 0.74 0.77 0.80 0.85 0.90 0.91 0.95 0.99 1.00 1.02
0.31 0.28 0.27 0.28 0.29 0.32 0.38 0.42 0.45 0.48 0.49 0.50 0.52 0.54 0.59 0.62 0.62 0.64 0.68 0.68 0.68 0.65 0.61 0.57 0.54 0.54 0.57 0.61 0.63 0.65 0.67 0.68 0.69 0.71 0.73 0.76 0.79 0.80 0.82 0.86 0.87 0.88 0.89
0.19 0.17 0.17 0.18 0.20 0.22 0.26 0.30 0.35 0.40 0.44 0.45 0.44 0.45 0.47 0.49 0.51 0.49 0.48 0.48 0.51 0.53 0.53 0.53 0.53 0.51 0.50 0.53 0.57 0.60 0.64 0.66 0.69 0.70 0.72 0.75 0.82 0.84 0.81 0.79 0.78 0.79 0.84
0.12 0.11 0.10 0.11 0.14 0.15 0.18 0.22 0.27 0.32 0.35 0.39 0.40 0.41 0.41 0.41 0.42 0.42 0.41 0.39 0.40 0.43 0.46 0.51 0.55 0.59 0.60 0.73 0.69 0.63 0.64 0.68 0.69 0.68 0.66 0.66 0.70 0.70 0.70 0.69 0.68 0.73 0.80
0.09 0.09 0.09 0.08 0.09 0.10 0.16 0.22 0.25 0.26 0.28 0.30 0.30 0.31 0.32 0.34 0.35 0.38 0.42 0.46 0.51 0.52 0.56 0.60 0.65 0.69 0.76 0.84 0.76 0.71 0.63 0.65 0.66 0.64 0.59 0.56 0.54 0.56 0.48 0.52 0.56 0.58 0.66
0.06 0.05 0.06 0.06 0.06 0.09 0.13 0.20 0.28 0.30 0.33 0.36 0.34 0.31 0.32 0.38 0.43 0.50 0.56 0.65 0.72 0.76 0.80 0.83 0.85 0.84 0.83 0.81 0.72 0.69 0.61 0.58 0.54 0.49 0.44 0.41 0.38 0.37 0.38 0.41 0.48 0.46 0.45
0.05 0.05 0.05 0.06 0.08 0.10 0.12 0.17 0.26 0.32 0.37 0.42 0.45 0.45 0.48 0.55 0.61 0.70 0.79 0.81 0.87 0.87 0.85 0.82 0.80 0.77 0.72 0.67 0.58 0.50 0.43 0.44 0.42 0.37 0.34 0.34 0.32 0.38 0.45 0.45 0.46 0.37 0.32
0.10 0.07 0.07 0.08 0.11 0.14 0.17 0.23 0.31 0.40 0.47 0.51 0.57 0.59 0.61 0.64 0.66 0.68 0.70 0.70 0.69 0.67 0.61 0.57 0.53 0.50 0.47 0.45 0.40 0.37 0.32 0.31 0.29 0.29 0.29 0.34 0.34 0.41 0.49 0.45 0.41 0.35 0.30
0.20 0.18 0.18 0.19 0.22 0.26 0.33 0.40 0.47 0.56 0.61 0.61 0.64 0.66 0.63 0.62 0.58 0.51 0.45 0.43 0.40 0.36 0.32 0.30 0.28 0.25 0.24 0.25 0.25 0.27 0.26 0.26 0.26 0.26 0.26 0.29 0.39 0.46 0.49 0.43 0.35 0.36 0.40
0.20 0.25 0.28 0.29 0.30 0.36 0.44 0.50 0.55 0.57 0.54 0.48 0.44 0.41 0.35 0.32 0.30 0.26 0.24 0.24 0.23 0.22 0.20 0.18 0.16 0.14 0.14 0.15 0.17 0.20 0.24 0.26 0.25 0.24 0.23 0.27 0.40 0.42 0.40 0.38 0.38 0.42 0.41
0.09 0.13 0.18 0.21 0.22 0.23 0.26 0.28 0.27 0.24 0.21 0.17 0.15 0.15 0.14 0.14 0.15 0.14 0.14 0.14 0.15 0.15 0.14 0.14 0.13 0.13 0.13 0.15 0.19 0.21 0.25 0.29 0.29 0.25 0.28 0.32 0.33 0.32 0.32 0.36 0.41 0.40 0.36
0.06 0.06 0.07 0.07 0.07 0.07 0.07 0.07 0.07 0.06 0.07 0.07 0.07 0.08 0.08 0.09 0.10 0.10 0.09 0.11 0.12 0.13 0.14 0.15 0.15 0.15 0.15 0.16 0.19 0.23 0.26 0.30 0.31 0.30 0.30 0.29 0.28 0.29 0.30 0.32 0.34 0.35 0.36
0.06 0.06 0.07 0.08 0.07 0.07 0.07 0.07 0.06 0.06 0.06 0.07 0.08 0.09 0.10 0.11 0.12 0.13 0.13 0.15 0.16 0.18 0.20 0.20 0.20 0.22 0.21 0.21 0.28 0.33 0.33 0.35 0.38 0.39 0.34 0.31 0.30 0.29 0.28 0.29 0.30 0.32 0.36
0.05 0.06 0.07 0.09 0.09 0.09 0.08 0.08 0.08 0.08 0.09 0.09 0.09 0.10 0.11 0.12 0.14 0.14 0.15 0.18 0.19 0.21 0.23 0.22 0.23 0.22 0.24 0.28 0.34 0.36 0.37 0.41 0.47 0.49 0.39 0.32 0.29 0.30 0.29 0.30 0.33 0.36 0.39